| time (UTC) | temp C | wind direction | speed KPH | gust KPH | rain 1hr cm | rain 24hr cm | rain mn cm | humidity % | barometer mb |
| 20260906154406 | 31 | 223 | 3.2 | 11.3 | 0.00 | 0.10 | 0.00 | 78 | 1013.9 |
| 20260906153906 | 31 | 225 | 3.2 | 9.7 | 0.00 | 0.10 | 0.00 | 78 | 1013.9 |
| 20260906152907 | 31 | 297 | 3.2 | 6.4 | 0.00 | 0.10 | 0.00 | 79 | 1013.8 |
| 20260906152336 | 31 | 300 | 3.2 | 6.4 | 0.00 | 0.10 | 0.00 | 78 | 1013.9 |
| 20260906145236 | 30 | 294 | 1.6 | 4.8 | 0.00 | 0.10 | 0.00 | 82 | 1014.1 |
| 20260906143706 | 30 | 312 | 1.6 | 4.8 | 0.00 | 0.10 | 0.00 | 83 | 1014.1 |
| 20260906140536 | 28 | 293 | 1.6 | 4.8 | 0.00 | 0.10 | 0.00 | 88 | 1014.2 |
| 20260906140036 | 28 | 272 | 1.6 | 4.8 | 0.00 | 0.10 | 0.00 | 90 | 1014.2 |
| 20260906135506 | 28 | 276 | 1.6 | 4.8 | 0.00 | 0.10 | 0.00 | 89 | 1014.3 |
| 20260906135006 | 28 | 325 | 1.6 | 4.8 | 0.00 | 0.10 | 0.00 | 90 | 1014.3 |
| 20260906134650 | 28 | 341 | 1.6 | 3.2 | 0.00 | 0.10 | 0.00 | 91 | 1014.2 |
| 20260906134506 | 28 | 341 | 1.6 | 3.2 | 0.00 | 0.10 | 0.00 | 91 | 1014.2 |
| 20260906133936 | 27 | 312 | 1.6 | 4.8 | 0.00 | 0.10 | 0.00 | 92 | 1014.3 |
| 20260906133406 | 27 | 282 | 1.6 | 4.8 | 0.00 | 0.10 | 0.00 | 92 | 1014.4 |
| 20260906131116 | 27 | 259 | 0.0 | 1.6 | 0.00 | 0.10 | 0.00 | 94 | 1014.4 |
| 20260906130836 | 27 | 259 | 0.0 | 1.6 | 0.00 | 0.10 | 0.00 | 94 | 1014.4 |
| 20260906125806 | 26 | 263 | 1.6 | 4.8 | 0.00 | 0.10 | 0.00 | 94 | 1014.2 |
| 20260906123536 | 26 | 239 | 3.2 | 6.4 | 0.00 | 0.10 | 0.00 | 96 | 1014.0 |
| 20260906123206 | 26 | 239 | 3.2 | 6.4 | 0.00 | 0.10 | 0.00 | 96 | 1014.0 |
| 20260906123026 | 25 | 230 | 1.6 | 6.4 | 0.00 | 0.10 | 0.00 | 97 | 1013.9 |
| 20260906122705 | 25 | 230 | 1.6 | 6.4 | 0.00 | 0.10 | 0.00 | 97 | 1013.9 |
| 20260906122459 | 25 | 228 | 1.6 | 4.8 | 0.00 | 0.10 | 0.00 | 97 | 1013.9 |
| 20260906122206 | 25 | 228 | 1.6 | 4.8 | 0.00 | 0.10 | 0.00 | 97 | 1013.9 |
| 20260906121706 | 25 | 237 | 1.6 | 4.8 | 0.00 | 0.10 | 0.00 | 98 | 1013.8 |
| 20260906120136 | 25 | 235 | 1.6 | 4.8 | 0.00 | 0.10 | 0.00 | 100 | 1013.8 |
| 20260906114036 | 24 | 248 | 0.0 | 1.6 | 0.00 | 0.10 | 0.00 | 100 | 1013.7 |
| 20260906113536 | 23 | 248 | 0.0 | 1.6 | 0.00 | 0.10 | 0.00 | 100 | 1013.5 |
| 20260906113036 | 23 | 248 | 0.0 | 1.6 | 0.00 | 0.10 | 0.00 | 100 | 1013.4 |
| 20260906111436 | 23 | 0 | 0.0 | 0.0 | 0.00 | 0.10 | 0.00 | 99 | 1013.5 |
| 20260906110114 | 23 | 0 | 0.0 | 0.0 | 0.00 | 0.10 | 0.00 | 99 | 1013.2 |
| 20260906105907 | 23 | 0 | 0.0 | 0.0 | 0.00 | 0.10 | 0.00 | 99 | 1013.2 |
| 20260906105637 | 23 | 0 | 0.0 | 0.0 | 0.00 | 0.10 | 0.00 | 99 | 1013.2 |
| 20260906105407 | 23 | 0 | 0.0 | 0.0 | 0.00 | 0.10 | 0.00 | 99 | 1013.2 |
| 20260906103836 | 23 | 248 | 1.6 | 1.6 | 0.00 | 0.10 | 0.00 | 99 | 1012.6 |
| 20260906103520 | 23 | 248 | 0.0 | 3.2 | 0.00 | 0.10 | 0.00 | 99 | 1012.6 |
| 20260906103305 | 23 | 248 | 0.0 | 3.2 | 0.00 | 0.10 | 0.00 | 99 | 1012.6 |
| 20260906102806 | 24 | 248 | 0.0 | 3.2 | 0.00 | 0.10 | 0.00 | 99 | 1012.6 |
| 20260906102306 | 24 | 248 | 0.0 | 3.2 | 0.00 | 0.10 | 0.00 | 99 | 1012.5 |
| 20260906101806 | 24 | 248 | 1.6 | 3.2 | 0.00 | 0.10 | 0.00 | 99 | 1012.3 |
| 20260906100958 | 23 | 244 | 1.6 | 3.2 | 0.00 | 0.10 | 0.00 | 99 | 1012.2 |
| 20260906100706 | 23 | 244 | 1.6 | 3.2 | 0.00 | 0.10 | 0.00 | 99 | 1012.2 |
| 20260906100206 | 23 | 244 | 0.0 | 3.2 | 0.00 | 0.10 | 0.00 | 99 | 1012.2 |
| 20260906095706 | 23 | 0 | 0.0 | 0.0 | 0.00 | 0.10 | 0.00 | 99 | 1012.3 |
| 20260906095028 | 32 | 325 | 1.6 | 4.8 | 0.00 | 0.00 | 0.00 | 71 | 1014.2 |
| 20260906095026 | 33 | 324 | 1.6 | 4.8 | 0.00 | 0.00 | 0.00 | 71 | 1014.4 |
| 20260906095021 | 33 | 303 | 1.6 | 4.8 | 0.00 | 0.00 | 0.00 | 73 | 1014.4 |
| 20260906094036 | 24 | 0 | 0.0 | 0.0 | 0.00 | 0.10 | 0.00 | 98 | 1012.4 |
| 20260906093536 | 24 | 244 | 0.0 | 1.6 | 0.00 | 0.10 | 0.00 | 98 | 1012.4 |
| 20260906093036 | 24 | 244 | 0.0 | 3.2 | 0.00 | 0.10 | 0.00 | 98 | 1012.2 |
| 20260906091936 | 24 | 244 | 0.0 | 1.6 | 0.00 | 0.10 | 0.00 | 98 | 1012.1 |
| 20260906091436 | 24 | 244 | 0.0 | 1.6 | 0.00 | 0.10 | 0.00 | 98 | 1012.0 |
| 20260906090408 | 24 | 244 | 0.0 | 1.6 | 0.00 | 0.10 | 0.00 | 98 | 1011.9 |
| 20260906085651 | 24 | 241 | 3.2 | 6.4 | 0.00 | 0.10 | 0.00 | 98 | 1011.8 |
| 20260906085406 | 24 | 241 | 3.2 | 6.4 | 0.00 | 0.10 | 0.00 | 98 | 1011.8 |
| 20260906084117 | 24 | 239 | 3.2 | 4.8 | 0.00 | 0.10 | 0.00 | 98 | 1011.8 |
| 20260906083835 | 24 | 239 | 3.2 | 4.8 | 0.00 | 0.10 | 0.00 | 98 | 1011.8 |
| 20260906083337 | 24 | 237 | 3.2 | 4.8 | 0.00 | 0.10 | 0.00 | 98 | 1011.8 |
| 20260906082806 | 24 | 236 | 3.2 | 8.0 | 0.00 | 0.10 | 0.00 | 97 | 1011.8 |
| 20260906082500 | 24 | 243 | 3.2 | 8.0 | 0.00 | 0.10 | 0.00 | 97 | 1011.8 |
| 20260906082306 | 24 | 243 | 3.2 | 8.0 | 0.00 | 0.10 | 0.00 | 97 | 1011.8 |
| 20260906081003 | 24 | 249 | 1.6 | 4.8 | 0.00 | 0.10 | 0.00 | 97 | 1011.7 |
| 20260906080806 | 24 | 249 | 1.6 | 4.8 | 0.00 | 0.10 | 0.00 | 97 | 1011.7 |
| 20260906080438 | 24 | 243 | 1.6 | 4.8 | 0.00 | 0.10 | 0.00 | 97 | 1011.7 |
| 20260906080235 | 24 | 243 | 1.6 | 4.8 | 0.00 | 0.10 | 0.00 | 97 | 1011.7 |
| 20260906075235 | 24 | 238 | 1.6 | 4.8 | 0.00 | 0.10 | 0.00 | 97 | 1011.8 |
| 20260906074939 | 25 | 238 | 1.6 | 4.8 | 0.00 | 0.10 | 0.00 | 97 | 1011.8 |
| 20260906074735 | 25 | 238 | 1.6 | 4.8 | 0.00 | 0.10 | 0.00 | 97 | 1011.8 |
| 20260906072636 | 25 | 235 | 3.2 | 4.8 | 0.00 | 0.10 | 0.00 | 96 | 1011.8 |
| 20260906072106 | 25 | 243 | 3.2 | 4.8 | 0.00 | 0.10 | 0.00 | 95 | 1011.9 |
| 20260906071606 | 25 | 246 | 3.2 | 6.4 | 0.00 | 0.10 | 0.00 | 95 | 1012.0 |
| 20260906070036 | 25 | 255 | 3.2 | 4.8 | 0.00 | 0.10 | 0.00 | 95 | 1012.3 |
| 20260906065505 | 25 | 251 | 1.6 | 4.8 | 0.00 | 0.10 | 0.00 | 95 | 1012.4 |
| 20260906064338 | 25 | 251 | 3.2 | 4.8 | 0.00 | 0.10 | 0.00 | 95 | 1012.7 |
| 20260906063936 | 25 | 251 | 3.2 | 4.8 | 0.00 | 0.10 | 0.00 | 95 | 1012.7 |
| 20260906063436 | 25 | 254 | 3.2 | 4.8 | 0.00 | 0.10 | 0.00 | 96 | 1012.7 |
| 20260906063107 | 25 | 253 | 1.6 | 4.8 | 0.00 | 0.10 | 0.00 | 96 | 1012.8 |
| 20260906062936 | 25 | 253 | 1.6 | 4.8 | 0.00 | 0.10 | 0.00 | 96 | 1012.8 |
| 20260906061406 | 25 | 259 | 1.6 | 3.2 | 0.00 | 0.10 | 0.00 | 96 | 1013.1 |
| 20260906055336 | 25 | 241 | 3.2 | 4.8 | 0.00 | 0.10 | 0.00 | 96 | 1013.2 |
| 20260906055006 | 25 | 250 | 1.6 | 4.8 | 0.00 | 0.10 | 0.00 | 96 | 1013.3 |
| 20260906054805 | 25 | 250 | 1.6 | 4.8 | 0.00 | 0.10 | 0.00 | 96 | 1013.3 |
| 20260906052933 | 25 | 240 | 1.6 | 3.2 | 0.00 | 0.10 | 0.00 | 96 | 1013.5 |
| 20260906052706 | 25 | 240 | 1.6 | 3.2 | 0.00 | 0.10 | 0.00 | 96 | 1013.5 |
| 20260906051135 | 25 | 237 | 1.6 | 3.2 | 0.00 | 0.10 | 0.00 | 95 | 1013.4 |
| 20260906050635 | 25 | 235 | 1.6 | 3.2 | 0.00 | 0.10 | 0.00 | 95 | 1013.5 |
| 20260906050135 | 25 | 236 | 1.6 | 3.2 | 0.00 | 0.10 | 0.00 | 94 | 1013.4 |
| 20260906045808 | 25 | 236 | 0.0 | 3.2 | 0.00 | 0.10 | 0.00 | 94 | 1013.6 |
| 20260906045605 | 25 | 236 | 0.0 | 3.2 | 0.00 | 0.10 | 0.00 | 94 | 1013.6 |
| 20260906045106 | 25 | 236 | 0.0 | 1.6 | 0.00 | 0.10 | 0.00 | 94 | 1013.7 |
| 20260906044240 | 25 | 238 | 3.2 | 9.7 | 0.00 | 0.10 | 0.00 | 93 | 1013.7 |
| 20260906044036 | 25 | 238 | 3.2 | 9.7 | 0.00 | 0.10 | 0.00 | 93 | 1013.7 |
| 20260906043728 | 25 | 238 | 4.8 | 9.7 | 0.00 | 0.10 | 0.00 | 94 | 1013.6 |
| 20260906043505 | 25 | 238 | 4.8 | 9.7 | 0.00 | 0.10 | 0.00 | 94 | 1013.6 |
| 20260906035806 | 25 | 239 | 3.2 | 8.0 | 0.00 | 0.10 | 0.10 | 94 | 1013.8 |
| 20260906035306 | 26 | 241 | 4.8 | 12.9 | 0.00 | 0.10 | 0.10 | 93 | 1013.9 |
| 20260906033705 | 26 | 230 | 3.2 | 12.9 | 0.00 | 0.10 | 0.10 | 92 | 1013.6 |
| 20260906032705 | 26 | 231 | 3.2 | 8.0 | 0.00 | 0.10 | 0.10 | 92 | 1013.7 |
| 20260906032136 | 26 | 204 | 3.2 | 9.7 | 0.00 | 0.10 | 0.10 | 91 | 1013.9 |
| 20260906031635 | 26 | 202 | 3.2 | 9.7 | 0.00 | 0.10 | 0.10 | 91 | 1013.8 |
| 20260906031334 | 26 | 208 | 3.2 | 11.3 | 0.00 | 0.10 | 0.10 | 91 | 1013.8 |
| 20260906031136 | 26 | 208 | 3.2 | 11.3 | 0.00 | 0.10 | 0.10 | 91 | 1013.8 |
| 20260906030818 | 26 | 199 | 3.2 | 11.3 | 0.00 | 0.10 | 0.10 | 91 | 1013.9 |
| 20260906030635 | 26 | 199 | 3.2 | 11.3 | 0.00 | 0.10 | 0.10 | 91 | 1013.9 |
| 20260906030106 | 26 | 195 | 3.2 | 6.4 | 0.00 | 0.10 | 0.10 | 91 | 1013.8 |
| 20260906025606 | 26 | 187 | 4.8 | 14.5 | 0.00 | 0.10 | 0.10 | 90 | 1013.8 |
| 20260906025035 | 26 | 182 | 4.8 | 11.3 | 0.00 | 0.10 | 0.10 | 90 | 1013.7 |
| 20260906024535 | 26 | 186 | 3.2 | 12.9 | 0.00 | 0.10 | 0.10 | 90 | 1013.7 |
| 20260906024006 | 26 | 198 | 3.2 | 12.9 | 0.00 | 0.10 | 0.10 | 89 | 1013.9 |
| 20260906023614 | 26 | 195 | 3.2 | 9.7 | 0.00 | 0.10 | 0.10 | 89 | 1013.8 |
| 20260906023435 | 26 | 195 | 3.2 | 9.7 | 0.00 | 0.10 | 0.10 | 89 | 1013.8 |
| 20260906023104 | 26 | 192 | 3.2 | 9.7 | 0.00 | 0.10 | 0.10 | 89 | 1013.8 |
| 20260906022906 | 26 | 192 | 3.2 | 9.7 | 0.00 | 0.10 | 0.10 | 89 | 1013.8 |
| 20260906021835 | 27 | 177 | 4.8 | 9.7 | 0.00 | 0.10 | 0.10 | 89 | 1014.1 |
| 20260906021305 | 27 | 182 | 3.2 | 9.7 | 0.00 | 0.10 | 0.10 | 89 | 1014.0 |
| 20260906020736 | 27 | 197 | 3.2 | 11.3 | 0.00 | 0.10 | 0.10 | 88 | 1013.8 |
| 20260906014833 | 27 | 172 | 3.2 | 11.3 | 0.00 | 0.10 | 0.10 | 88 | 1013.9 |
| 20260906014635 | 27 | 172 | 3.2 | 11.3 | 0.00 | 0.10 | 0.10 | 88 | 1013.9 |
| 20260906013536 | 27 | 112 | 4.8 | 17.7 | 0.00 | 0.10 | 0.10 | 90 | 1013.7 |
| 20260906013006 | 26 | 109 | 3.2 | 17.7 | 0.00 | 0.10 | 0.10 | 92 | 1013.7 |
| 20260906011935 | 26 | 178 | 0.0 | 1.6 | 0.00 | 0.10 | 0.10 | 91 | 1013.4 |
| 20260906011701 | 26 | 178 | 0.0 | 1.6 | 0.00 | 0.10 | 0.10 | 91 | 1013.3 |
| 20260906011436 | 26 | 178 | 0.0 | 1.6 | 0.00 | 0.10 | 0.10 | 91 | 1013.3 |
| 20260906011155 | 26 | 178 | 0.0 | 1.6 | 0.00 | 0.10 | 0.10 | 91 | 1013.1 |
| 20260906010905 | 26 | 178 | 0.0 | 1.6 | 0.00 | 0.10 | 0.10 | 91 | 1013.1 |
| 20260906010625 | 26 | 178 | 0.0 | 1.6 | 0.00 | 0.10 | 0.10 | 91 | 1013.0 |
| 20260906010336 | 26 | 178 | 0.0 | 1.6 | 0.00 | 0.10 | 0.10 | 91 | 1013.0 |
| 20260906004305 | 27 | 178 | 0.0 | 1.6 | 0.00 | 0.10 | 0.10 | 89 | 1013.0 |
| 20260906004111 | 27 | 0 | 0.0 | 0.0 | 0.00 | 0.10 | 0.10 | 88 | 1013.0 |
| 20260906003806 | 27 | 0 | 0.0 | 0.0 | 0.00 | 0.10 | 0.10 | 88 | 1013.0 |
| 20260906003534 | 27 | 0 | 0.0 | 0.0 | 0.00 | 0.10 | 0.10 | 89 | 1012.9 |
| 20260906003307 | 27 | 0 | 0.0 | 0.0 | 0.00 | 0.10 | 0.10 | 89 | 1012.9 |
| 20260906003231 | 27 | 178 | 0.0 | 1.6 | 0.00 | 0.10 | 0.10 | 88 | 1013.0 |
| 20260906002806 | 27 | 178 | 0.0 | 1.6 | 0.00 | 0.10 | 0.10 | 88 | 1013.0 |
| 20260906002611 | 27 | 169 | 0.0 | 1.6 | 0.00 | 0.10 | 0.10 | 89 | 1013.0 |
| 20260906002306 | 27 | 169 | 0.0 | 1.6 | 0.00 | 0.10 | 0.10 | 89 | 1013.0 |
| 20260906001944 | 27 | 135 | 0.0 | 1.6 | 0.00 | 0.10 | 0.10 | 89 | 1013.0 |
| 20260906001736 | 27 | 135 | 0.0 | 1.6 | 0.00 | 0.10 | 0.10 | 89 | 1013.0 |
| 20260906001528 | 27 | 146 | 1.6 | 3.2 | 0.00 | 0.10 | 0.10 | 89 | 1013.1 |
| 20260906001205 | 27 | 146 | 1.6 | 3.2 | 0.00 | 0.10 | 0.10 | 89 | 1013.1 |
| 20260906000831 | 27 | 169 | 1.6 | 3.2 | 0.00 | 0.10 | 0.10 | 89 | 1013.1 |
| 20260906000635 | 27 | 169 | 1.6 | 3.2 | 0.00 | 0.10 | 0.10 | 89 | 1013.1 |
| 20260906000105 | 27 | 183 | 1.6 | 3.2 | 0.00 | 0.10 | 0.10 | 89 | 1013.0 |
| 20260905234535 | 27 | 148 | 0.0 | 4.8 | 0.00 | 0.10 | 0.10 | 88 | 1012.5 |
| 20260905233629 | 27 | 180 | 1.6 | 3.2 | 0.00 | 0.10 | 0.10 | 88 | 1012.3 |
| 20260905233506 | 27 | 180 | 1.6 | 3.2 | 0.00 | 0.10 | 0.10 | 88 | 1012.3 |
| 20260905233309 | 27 | 227 | 1.6 | 4.8 | 0.00 | 0.10 | 0.10 | 88 | 1012.4 |
| 20260905233005 | 27 | 227 | 1.6 | 4.8 | 0.00 | 0.10 | 0.10 | 88 | 1012.4 |
| 20260905232705 | 28 | 215 | 0.0 | 4.8 | 0.00 | 0.10 | 0.10 | 88 | 1012.4 |
| 20260905232505 | 28 | 215 | 0.0 | 4.8 | 0.00 | 0.10 | 0.10 | 88 | 1012.4 |
| 20260905231935 | 28 | 114 | 1.6 | 6.4 | 0.00 | 0.10 | 0.10 | 88 | 1012.6 |
| 20260905231708 | 28 | 102 | 3.2 | 6.4 | 0.00 | 0.10 | 0.10 | 88 | 1012.7 |
| 20260905231436 | 28 | 102 | 3.2 | 6.4 | 0.00 | 0.10 | 0.10 | 88 | 1012.7 |
| 20260905230905 | 28 | 97 | 3.2 | 6.4 | 0.00 | 0.10 | 0.10 | 88 | 1012.6 |
| 20260905230115 | 28 | 111 | 1.6 | 6.4 | 0.00 | 0.10 | 0.10 | 89 | 1012.7 |
| 20260905225835 | 28 | 111 | 1.6 | 6.4 | 0.00 | 0.10 | 0.10 | 89 | 1012.7 |
| 20260905225336 | 28 | 153 | 1.6 | 6.4 | 0.00 | 0.10 | 0.10 | 89 | 1012.7 |
| 20260905225119 | 28 | 145 | 3.2 | 9.7 | 0.10 | 0.10 | 0.10 | 90 | 1012.7 |
| 20260905224835 | 28 | 145 | 3.2 | 9.7 | 0.10 | 0.10 | 0.10 | 90 | 1012.7 |
| 20260905223835 | 27 | 102 | 1.6 | 6.4 | 0.10 | 0.10 | 0.10 | 90 | 1012.8 |
| 20260905223603 | 27 | 109 | 1.6 | 4.8 | 0.10 | 0.10 | 0.10 | 89 | 1012.7 |
| 20260905223335 | 27 | 109 | 1.6 | 4.8 | 0.10 | 0.10 | 0.10 | 89 | 1012.7 |
| 20260905223119 | 27 | 93 | 1.6 | 4.8 | 0.10 | 0.10 | 0.10 | 88 | 1012.7 |
| 20260905222836 | 27 | 93 | 1.6 | 4.8 | 0.10 | 0.10 | 0.10 | 88 | 1012.7 |
| 20260905222021 | 27 | 53 | 1.6 | 3.2 | 0.10 | 0.10 | 0.10 | 89 | 1012.7 |
| 20260905221805 | 27 | 53 | 1.6 | 3.2 | 0.10 | 0.10 | 0.10 | 89 | 1012.7 |
| 20260905221041 | 27 | 36 | 3.2 | 8.0 | 0.10 | 0.10 | 0.10 | 90 | 1012.8 |
| 20260905220735 | 27 | 36 | 3.2 | 8.0 | 0.10 | 0.10 | 0.10 | 90 | 1012.8 |
| 20260905220456 | 27 | 29 | 3.2 | 8.0 | 0.10 | 0.10 | 0.10 | 87 | 1012.9 |
| 20260905220206 | 27 | 29 | 3.2 | 8.0 | 0.10 | 0.10 | 0.10 | 87 | 1012.9 |
| 20260905215135 | 29 | 17 | 4.8 | 12.9 | 0.05 | 0.05 | 0.05 | 78 | 1012.7 |
| 20260905214841 | 30 | 24 | 4.8 | 8.0 | 0.00 | 0.00 | 0.00 | 81 | 1012.8 |
| 20260905214605 | 30 | 24 | 4.8 | 8.0 | 0.00 | 0.00 | 0.00 | 81 | 1012.8 |
| 20260905214105 | 30 | 38 | 3.2 | 6.4 | 0.00 | 0.00 | 0.00 | 79 | 1012.9 |
| 20260905213759 | 30 | 39 | 3.2 | 6.4 | 0.00 | 0.00 | 0.00 | 80 | 1012.8 |
| 20260905213605 | 30 | 39 | 3.2 | 6.4 | 0.00 | 0.00 | 0.00 | 80 | 1012.8 |
| 20260905213405 | 30 | 20 | 4.8 | 9.7 | 0.00 | 0.00 | 0.00 | 80 | 1012.8 |
| 20260905213106 | 30 | 20 | 4.8 | 9.7 | 0.00 | 0.00 | 0.00 | 80 | 1012.8 |
| 20260905212823 | 29 | 23 | 3.2 | 9.7 | 0.00 | 0.00 | 0.00 | 80 | 1012.7 |
| 20260905212535 | 29 | 23 | 3.2 | 9.7 | 0.00 | 0.00 | 0.00 | 80 | 1012.7 |
| 20260905210935 | 29 | 280 | 3.2 | 11.3 | 0.00 | 0.00 | 0.00 | 80 | 1012.7 |
| 20260905210405 | 29 | 280 | 4.8 | 11.3 | 0.00 | 0.00 | 0.00 | 78 | 1012.5 |
| 20260905205905 | 29 | 274 | 6.4 | 14.5 | 0.00 | 0.00 | 0.00 | 75 | 1012.6 |
| 20260905204835 | 30 | 274 | 8.0 | 19.3 | 0.00 | 0.00 | 0.00 | 74 | 1012.7 |
| 20260905204305 | 31 | 274 | 8.0 | 19.3 | 0.00 | 0.00 | 0.00 | 76 | 1012.6 |
| 20260905203735 | 31 | 270 | 6.4 | 11.3 | 0.00 | 0.00 | 0.00 | 72 | 1012.6 |
| 20260905203538 | 31 | 271 | 8.0 | 20.9 | 0.00 | 0.00 | 0.00 | 72 | 1012.5 |
| 20260905203235 | 31 | 271 | 8.0 | 20.9 | 0.00 | 0.00 | 0.00 | 72 | 1012.5 |
| 20260905202705 | 32 | 272 | 6.4 | 20.9 | 0.00 | 0.00 | 0.00 | 70 | 1012.4 |
| 20260905202205 | 33 | 281 | 4.8 | 16.1 | 0.00 | 0.00 | 0.00 | 71 | 1012.3 |
| 20260905201635 | 33 | 305 | 3.2 | 9.7 | 0.00 | 0.00 | 0.00 | 70 | 1012.3 |
| 20260905201105 | 33 | 301 | 3.2 | 11.3 | 0.00 | 0.00 | 0.00 | 66 | 1012.4 |
| 20260905200605 | 34 | 290 | 3.2 | 11.3 | 0.00 | 0.00 | 0.00 | 64 | 1012.3 |
| 20260905200358 | 34 | 289 | 3.2 | 9.7 | 0.00 | 0.00 | 0.00 | 64 | 1012.4 |
| 20260905200105 | 34 | 289 | 3.2 | 9.7 | 0.00 | 0.00 | 0.00 | 64 | 1012.4 |
| 20260905195535 | 34 | 292 | 4.8 | 12.9 | 0.00 | 0.00 | 0.00 | 65 | 1012.5 |
| 20260905195005 | 34 | 288 | 4.8 | 12.9 | 0.00 | 0.00 | 0.00 | 65 | 1012.4 |
| 20260905194435 | 34 | 287 | 3.2 | 9.7 | 0.00 | 0.00 | 0.00 | 66 | 1012.5 |
| 20260905193935 | 33 | 284 | 3.2 | 12.9 | 0.00 | 0.00 | 0.00 | 68 | 1012.4 |
| 20260905193405 | 33 | 272 | 3.2 | 12.9 | 0.00 | 0.00 | 0.00 | 68 | 1012.6 |
| 20260905192835 | 33 | 263 | 4.8 | 16.1 | 0.00 | 0.00 | 0.00 | 68 | 1012.7 |
| 20260905192549 | 33 | 262 | 6.4 | 16.1 | 0.00 | 0.00 | 0.00 | 68 | 1012.7 |
| 20260905192306 | 33 | 262 | 6.4 | 16.1 | 0.00 | 0.00 | 0.00 | 68 | 1012.7 |
| 20260905191646 | 33 | 298 | 3.2 | 11.3 | 0.00 | 0.00 | 0.00 | 67 | 1012.9 |
| 20260905191235 | 33 | 298 | 3.2 | 11.3 | 0.00 | 0.00 | 0.00 | 67 | 1012.9 |
| 20260905191140 | 34 | 303 | 3.2 | 11.3 | 0.00 | 0.00 | 0.00 | 67 | 1012.9 |
| 20260905190735 | 34 | 303 | 3.2 | 11.3 | 0.00 | 0.00 | 0.00 | 67 | 1012.9 |
| 20260905190624 | 34 | 302 | 3.2 | 9.7 | 0.00 | 0.00 | 0.00 | 68 | 1012.9 |
| 20260905190205 | 34 | 302 | 3.2 | 9.7 | 0.00 | 0.00 | 0.00 | 68 | 1012.9 |
| 20260905185705 | 34 | 306 | 3.2 | 9.7 | 0.00 | 0.00 | 0.00 | 68 | 1013.0 |
| 20260905185135 | 33 | 302 | 3.2 | 6.4 | 0.00 | 0.00 | 0.00 | 69 | 1013.1 |
| 20260905184635 | 33 | 299 | 4.8 | 14.5 | 0.00 | 0.00 | 0.00 | 66 | 1013.1 |
| 20260905184105 | 33 | 288 | 4.8 | 14.5 | 0.00 | 0.00 | 0.00 | 70 | 1013.0 |
| 20260905183535 | 33 | 287 | 4.8 | 9.7 | 0.00 | 0.00 | 0.00 | 73 | 1013.2 |
| 20260905182505 | 32 | 311 | 3.2 | 6.4 | 0.00 | 0.00 | 0.00 | 75 | 1013.1 |
| 20260905182005 | 32 | 287 | 4.8 | 12.9 | 0.00 | 0.00 | 0.00 | 72 | 1013.2 |
| 20260905181505 | 32 | 265 | 4.8 | 12.9 | 0.00 | 0.00 | 0.00 | 72 | 1013.3 |
| 20260905180935 | 33 | 253 | 4.8 | 11.3 | 0.00 | 0.00 | 0.00 | 68 | 1013.3 |
| 20260905180435 | 33 | 259 | 4.8 | 9.7 | 0.00 | 0.00 | 0.00 | 70 | 1013.3 |
| 20260905180212 | 33 | 253 | 4.8 | 9.7 | 0.00 | 0.00 | 0.00 | 71 | 1013.3 |
| 20260905175935 | 33 | 253 | 4.8 | 9.7 | 0.00 | 0.00 | 0.00 | 71 | 1013.3 |
| 20260905175405 | 32 | 241 | 3.2 | 11.3 | 0.00 | 0.00 | 0.00 | 72 | 1013.4 |
| 20260905174305 | 32 | 251 | 3.2 | 6.4 | 0.00 | 0.00 | 0.00 | 72 | 1013.5 |
| 20260905173805 | 32 | 253 | 3.2 | 6.4 | 0.00 | 0.00 | 0.00 | 71 | 1013.6 |
| 20260905173235 | 32 | 267 | 1.6 | 6.4 | 0.00 | 0.00 | 0.00 | 72 | 1013.7 |
| 20260905172705 | 32 | 269 | 1.6 | 6.4 | 0.00 | 0.00 | 0.00 | 71 | 1013.9 |
| 20260905171635 | 32 | 238 | 3.2 | 8.0 | 0.00 | 0.00 | 0.00 | 71 | 1013.9 |
| 20260905170635 | 32 | 325 | 1.6 | 4.8 | 0.00 | 0.00 | 0.00 | 71 | 1014.2 |
| 20260905170135 | 33 | 324 | 1.6 | 4.8 | 0.00 | 0.00 | 0.00 | 71 | 1014.4 |
| 20260905165105 | 33 | 303 | 1.6 | 4.8 | 0.00 | 0.00 | 0.00 | 73 | 1014.4 |
| 20260905165001 | 27 | 234 | 3.2 | 8.0 | 0.00 | 0.00 | 0.00 | 93 | 1015.3 |
| 20260905164957 | 27 | 227 | 3.2 | 8.0 | 0.00 | 0.00 | 0.00 | 93 | 1015.3 |
| 20260905164605 | 32 | 266 | 1.6 | 6.4 | 0.00 | 0.00 | 0.00 | 72 | 1014.6 |
| 20260905164035 | 32 | 240 | 1.6 | 6.4 | 0.00 | 0.00 | 0.00 | 74 | 1014.7 |
| 20260905163505 | 32 | 240 | 3.2 | 6.4 | 0.00 | 0.00 | 0.00 | 74 | 1014.7 |
| 20260905163005 | 31 | 251 | 3.2 | 8.0 | 0.00 | 0.00 | 0.00 | 75 | 1014.8 |
| 20260905162507 | 31 | 257 | 3.2 | 8.0 | 0.00 | 0.00 | 0.00 | 78 | 1014.9 |